Monday, September 01, 2014
07:35 UTC
  |  Log In   |  Register Free
Airport Search:

Henry Post Aaf (Fort Sill) Airport
(KFSI)

Henry Post Aaf (Fort Sill) Airport Diagram
No Airport Diagram Available

FAA data valid effective July 24, 2014 until September 18, 2014 (unless otherwise noted).

 
 
 
 
 
 
 
 
 
 
 
 
 
 

Current Aviation Weather for Henry Post Aaf (Fort Sill) Airport (KFSI)

The most recent METAR observation for KFSI was updated at: 0658 UTC
METAR Summary (Translated METAR)
KFSI
010658Z AUTO 18016KT 10SM CLR 28/21 A2979 RMK AO2 PK WND 19026/14 SLP073 T02790207
KLAW
(5.0 nm SW from KFSI)
010653Z AUTO 17015G21KT 10SM CLR 28/20 A2979 RMK AO2 SLP072 T02780200
TAF Summary (Translated TAF)
KFSI
2922/3103 21010G15KT 9000 -SHRA VCTS SCT070 BKN090CB QNH2981INS BECMG 2923/2924 19010KT 9999 NSW SCT060 QNH2981INS BECMG 3002/3003 VRB06KT 9999 FEW035 QNH2986INS BECMG 3014/3015 16012KT 9999 FEW090 QNH2983INS TX30/3021Z TN21/3012Z AMD 292215 LAST NO AMDS AFT 3003 NEXT 0213
KLAW
(5.0 nm SW from KFSI)
010520Z 0106/0206 16015KT P6SM SKC FM011400 20016G23KT P6SM SCT060 FM020000 15011KT P6SM SCT250
  Airport Weather Conditions for KFSI

 Current Weather at FSI
82° F
Fair
South winds at 18.4 mph
FSI NOAA Radar

Pressure: 29.79 in
Humidity: 65%
Wind: South at 18.4 MPH (16 KT)
Dew Point: 69.3°F
Visibility: 10.00 mi


Airport Weather Forecast for KFSI

Translated METAR and TAF for KFSI
Translated METAR for KFSI (0729 UTC 01 September 2014)
found at http://aviationweather.gov/adds/metars/
 
METAR text: KFSI 010658Z AUTO 18016KT 10SM CLR 28/21 A2979 RMK AO2 PK WND 19026/14 SLP073 T02790207
Conditions at: KFSI (FORT SILL , OK, US) observed 0658 UTC 01 September 2014
Temperature: 27.9°C (82°F)
Dewpoint: 20.7°C (69°F) [RH = 65%]
Pressure (altimeter): 29.79 inches Hg (1008.9 mb)
[Sea-level pressure: 1007.3 mb]
Winds: from the S (180 degrees) at 18 MPH (16 knots; 8.3 m/s)
Visibility: 10 or more miles (16+ km)
Ceiling: at least 12,000 feet AGL
Clouds: sky clear below 12,000 feet AGL
Weather: automated observation with no human augmentation;
there may or may not be significant weather present at this time
Translated TAF for KFSI

There is no translated TAF available for this airport

Find All Airport Services Find A Hotel Find A Rental Car Find A Golf Course Find A Restaurant $100 Hamburger



FBO's on the Field
FBO Company Facility Photos Services Transportation Aviation Fuel Prices: Prices include tax
Catering Weather Repair Courtesy Rental Type 100LL JetA JetA+ MOGAS 8087
 
Add another FBO Facility Photos Catering Weather Repair Courtesy Rental Type 100LL JetA JetA+ MOGAS 8087
Services Transportation Aviation Fuel Prices: Prices include tax
There are no FBO's currently reporting fuel at FSI. List your FBO now


GlobalAir.com Airport Resource Center model-print
model-print
model-print
model-print